Regional Weather Roundup
Issued by NWS

Home | Current Version | Previous Version | Text Only | Print | Product List | Glossary Off
Versions: 1 2 3 4 5 6 7 8 9 10 11 12 13 14 15 16 17 18 19 20 21 22 23 24 25 26 27 28 29 30 31 32 33 34 35 36 37 38 39 40 41 42 43 44 45 46 47 48 49 50

000
ASUS43 KLOT 251508
RWRIL

ILLINOIS REGIONAL WEATHER ROUNDUP
NATIONAL WEATHER SERVICE CHICAGO/ROMEOVILLE IL
1000 AM CDT MON JUL 25 2016

NOTE: "FAIR" INDICATES FEW OR NO CLOUDS BELOW 12,000 FEET WITH NO
SIGNIFICANT WEATHER AND/OR OBSTRUCTIONS TO VISIBILITY.

* THESE STATIONS ARE NOT UNDER NWS QUALITY CONTROL. THEY ALSO MAY NOT
  REPORT WEATHER SUCH AS PRECIPITATION OR FOG.

ILZ001-002-007-009-015-016-024-251600-
NORTHWEST ILLINOIS

CITY           SKY/WX    TMP DP  RH WIND       PRES   REMARKS
MOLINE         MOSUNNY   80  66  62 VRB7      30.02S HX  82
STERLING*      MOSUNNY   79  69  71 N6        30.02S HX  81
SAVANNA*       CLOUDY    79  68  68 NW8       30.03S HX  81
$$

ILZ003-004-008-010-011-017-018-251600-
NORTH CENTRAL ILLINOIS

CITY           SKY/WX    TMP DP  RH WIND       PRES   REMARKS
ROCKFORD       PTSUNNY   83  65  54 NW7       30.03S HX  85
FREEPORT*      SUNNY     77  66  68 NW3       30.05S
ROCHELLE*      CLOUDY    77  68  72 N5        30.02S
DE KALB*       CLOUDY    78  67  68 N9        30.03R HX  80
$$

ILZ005-006-012>014-019>023-251600-
NORTHEAST ILLINOIS

CITY           SKY/WX    TMP DP  RH WIND       PRES   REMARKS
CHICAGO-OHARE  MOSUNNY   80  64  58 N7        30.00R HX  82
CHICAGO-MIDWAY CLOUDY    82  65  56 NW6       30.00R HX  84
AURORA         CLOUDY    80  67  64 N10       30.01R HX  82
LANSING*       MOSUNNY   80  61  51 NE9       30.01R HX  81
JOLIET*        MOSUNNY   82  68  63 N8        30.00S HX  84
WAUKEGAN       SUNNY     81  65  58 N8        29.99R HX  83
DUPAGE AIRPORT CLOUDY    80  65  59 N9        30.01R HX  82
KANKAKEE*      MOSUNNY   80  71  72 N5        30.00S HX  84
WHEELING       SUNNY     81  64  56 N8        30.01R HX  82
MORRIS*        MOSUNNY   79  69  71 CALM      29.99S HX  82
ROMEOVILLE*    CLOUDY    80  64  59 N6        30.01S HX  82
NORTHERLY ISL    N/A     80  60  50 N10         N/A  HX  81
$$

LMZ740>746-251600-
SOUTHERN LAKE MICHIGAN

STATION/POSITION SKY/WX   TEMP    WIND        PRES    VSBY  WAVE
                          AIR SEA DIR/SP/G                  HT/PER
                          (F)     (DEG/KT/KT) (MB)    (MI)  (FT/S)
SOUTHERN BUOY              72 72  330/ 10/ 12 1014.5R         2/ 4
WILMETTE HARBOR            70 65  360/  4/  4   N/A           0
HARRISON CRIB              75     340/ 12/ 13   N/A
BURNHAM HARBOR             80      20/  7/ 12   N/A
CALUMET HARBOR             78     340/  7/ 10 1015.2R
BURNS HARBOR               74     340/  9/ 12 1015.9R
MICHIGAN CITY              75     310/ 13/ 14   N/A
MICHIGAN CITY 6N           74 73  330/ 10/ 12   N/A           2/ 3
ST. JOSEPH                 74 74  330/  8/ 10 1015.2R         2/ 4
$$

ILZ025>027-034>036-040-047-049-050-058-095>099-251600-
WEST-CENTRAL ILLINOIS

CITY           SKY/WX    TMP DP  RH WIND       PRES   REMARKS
QUINCY         CLOUDY    78  70  76 N8        30.02R HX  80
GALESBURG*     CLOUDY    76  69  78 N10       30.02F
MACOMB*        PTSUNNY   75  70  84 N7        30.03R
JACKSONVILLE*  CLOUDY    77  71  81 CALM      30.04R
PITTSFIELD*    CLOUDY    76  72  89 CALM      30.05R
$$

ILZ028>032-037-038-041>044-048-051>054-059>061-251600-
CENTRAL ILLINOIS

CITY           SKY/WX    TMP DP  RH WIND       PRES   REMARKS
PONTIAC        CLOUDY    79  73  82 NW5       30.02R HX  83
BLOOMINGTON    CLOUDY    78  71  79 NE8       30.02R HX  80
DECATUR        PTSUNNY   78  71  79 W5        30.03S HX  80
PEORIA         CLOUDY    80  71  74 N8        30.00R HX  84
LACON*         CLOUDY    78  70  76 N5        30.00R
LINCOLN*       CLOUDY    76  74  95 S7        30.04R
SPRINGFIELD    MOSUNNY   78  72  81 VRB3      30.04R HX  80
TAYLORVILLE    PTSUNNY   77  73  86 MISG      30.04R
$$

ILZ033-039-045-046-055>057-062-063-251600-
EAST-CENTRAL ILLINOIS

CITY           SKY/WX    TMP DP  RH WIND       PRES   REMARKS
CHAMPAIGN      CLOUDY    77  72  84 W8        30.04R
MATTOON        SUNNY     80  72  76 N3        30.01S HX  84
PARIS*         CLOUDY    79  71  78 CALM      30.03R HX  82
$$

ILZ079-100>102-251600-
SOUTHWEST ILLINOIS

CITY           SKY/WX    TMP DP  RH WIND       PRES   REMARKS
ALTON          CLOUDY    75  72  88 W7        30.03R
BELLEVILLE     CLOUDY    79  77  92 NW1       30.01R HX  83
CAHOKIA*       CLOUDY    77  72  84 CALM      30.02R
SPARTA*        CLOUDY    82  77  84 S7        30.02R HX  91
$$

ILZ064>066-069>071-074>076-080>082-084>086-088>090-092>094-251600-
SOUTH-CENTRAL ILLINOIS

CITY           SKY/WX    TMP DP  RH WIND       PRES   REMARKS
CARBONDALE     CLOUDY    83  77  82 SW5       30.01R HX  92
CAIRO*         MOSUNNY   84  78  83 S7        30.01S HX  95
EFFINGHAM*     PTSUNNY   83  74  74 CALM      30.03S HX  89
MT. VERNON     CLOUDY    84  72  65 CALM      30.01R HX  89
CENTRALIA*     CLOUDY    83  74  75 SE7       30.01R HX  90
SALEM*         MOSUNNY   83  72  69 CALM      30.02R HX  88
METROPOLIS*    MOSUNNY   87  79  79 CALM      30.01S HX 101
$$

ILZ067-068-072-073-078-083-087-091-251600-
SOUTHEAST ILLINOIS

CITY           SKY/WX    TMP DP  RH WIND       PRES   REMARKS
LAWRENCEVILLE  PTSUNNY   82  72  71 CALM      30.01F HX  87
FLORA*         MOSUNNY   82  74  76 E5        30.02S HX  87
FAIRFIELD*     CLOUDY    80  73  77 CALM      30.01S HX  85
HARRISBURG*    MOSUNNY   84  80  87 CALM      30.01S HX  96
ROBINSON*      CLOUDY    80  71  75 CALM      30.02S HX  83
CARMI*         CLOUDY    83  78  82 S3        30.00S HX  93
$$

ABBREVIATIONS USED IN REMARKS
   TC - TEMPERATURE IN CELSIUS
  WCI - WIND CHILL INDEX
   HX - HEAT INDEX
  VSB - VISIBILITY
$$





USA.gov is the U.S. government's official web portal to all federal, state and local government web resources and services.